Regional Weather Roundup
Issued by NWS Newport/Morehead, NC

Current Version | Previous Version | Graphics & Text | Print | Product List | Glossary On
Versions: 1 2 3 4 5 6 7 8 9 10 11 12 13 14 15 16 17 18 19 20 21 22 23 24 25 26 27 28 29 30 31 32 33 34 35 36 37 38 39 40 41 42 43 44 45 46 47 48 49 50
000 ASUS42 KMHX 071625 RWRMHX WEATHER ROUNDUP FOR EASTERN NORTH CAROLINA NATIONAL WEATHER SERVICE NEWPORT/MOREHEAD CITY NC 1200 PM EDT TUE JUL 07 2015 NOTE: "FAIR" INDICATES FEW OR NO CLOUDS BELOW 12,000 FEET WITH NO SIGNIFICANT WEATHER AND/OR OBSTRUCTIONS TO VISIBILITY NCZ015>017-031-032-045>047-102-103-071700- NORTH COAST CITY SKY/WX TMP DP RH WIND PRES REMARKS EDENTON N/A 86 74 68 S8 30.12F ELIZABETH CITY SUNNY 86 74 67 S12 30.12F KITTY HAWK SUNNY 90 70 51 SW8 30.12F MANTEO SUNNY 87 68 53 SW7 30.13F $$ NCZ045>047-081-094-103-104-071700- CENTRAL COAST CITY SKY/WX TMP DP RH WIND PRES REMARKS FRISCO SUNNY 83 74 74 SW10 30.16S SWANQUARTER N/A 88 N/A N/A S8 30.12S $$ NCZ095-097-098-100-101-071700- SOUTHERN COAST CITY SKY/WX TMP DP RH WIND PRES REMARKS BEAUFORT SUNNY 84 75 74 SW13 30.16S CEDAR ISLAND N/A 88 N/A N/A S8G14 30.18S JACKSONVILLE PTSUNNY 86 71 60 W8 30.14S PINEY ISLAND PTSUNNY N/A N/A N/A NW6 30.14S WILMINGTON MOSUNNY 88 70 55 SW8 30.15S $$ NCZ011>013-027>030-043-044-078>080-089-090>093-098-071700- COASTAL PLAIN CITY SKY/WX TMP DP RH WIND PRES REMARKS AHOSKIE SUNNY 84 73 70 S7 30.12F CLINTON MOSUNNY 87 73 62 SW5 30.14F ELIZABETHTOWN MOSUNNY 87 69 54 CALM 30.14F GOLDSBORO MOSUNNY 88 74 62 SW7 30.11S GREENVILLE MOSUNNY 88 73 62 SW8 30.14S HAVELOCK MOSUNNY 88 70 55 SW10 30.15F KENANSVILLE MOSUNNY 87 70 57 SW8 30.15S KINSTON MOSUNNY 88 72 58 SW6 30.14S NEW BERN PTSUNNY 87 71 58 W8 30.15F RICHLANDS SUNNY 91 72 52 SW10 30.14F ROCKY MOUNT SUNNY 88 73 61 S8 30.13S WASHINGTON SUNNY 87 74 64 SW6 30.13F WHITEVILLE LGT RAIN 84 73 69 CALM 30.15S $$ AMZ130-135-150-152-154-156-158-170-250-252-270-ANZ085-086-088-633-658-670-071700- MARINE OBSERVATIONS STATION/POSITION TIME TEMP WIND PRES WAVE SWELL AIR SEA DIR/SP/G HT/PER HT/PER (UTC) (F) (DEG/KT/KT) (MB) (FT/S) (FT/S) CHESAPEAKE LIGHT 1600 80 200/ 12/ 13 1019.8 64 E VA BEACH 1550 78 77 200/ 12/ 14 1019.8 3/ 9 2/ 9 DUCK 1500 82 70 230/ 10/ 12 N/A 2 E DUCK 1511 76 N/A 2/14 2/14 OREGON INLET 1506 81 82 190/ 14/ 16 1020.6 13E OREGON INLT 1600 79 N/A 3/ 8 2/12 HATTERAS CG NOT AVBL DIAMOND BUOY 1550 81 83 230/ 12/ 14 1021.1 3/ 9 2/ 9 CAPE LOOKOUT 1600 82 220/ 9/ 12 1021.3 BEAUFORT LAB 1506 82 81 220/ 7/ 11 1020.6 30 SE NEW RVR IN NOT AVBL 27 SE WRIGHTSVLE 1600 80 230/ 8/ 10 N/A 5 SE WRIGHTSVLE 1508 80 79 200/ 10/ 14 1021.1 225 S CAPE HAT 1550 82 81 210/ 8/ 10 1023.6 4/ 8 3/ 8 41 SE CHARLESTON 1550 81 83 200/ 10/ 12 1021.3 3/ 9 3/ 9 $$

USA.gov is the U.S. government's official web portal to all federal, state and local government web resources and services.